COSMOS 1275 DEB, 12695

Orbit data source: Space-Track

COSMOS 1275 DEB, 12695 is space debris in LEO originally from a launch on Thu, 04 Jun 1981 UTC launched from the Plesetsk Missile And Space Complex (PKMTR). Debris objects in space refer to the collection of defunct objects orbiting the Earth. Examples of debris include non-operational satellites, rocket bodies, and fragments generated from explosions, collisions, or faulty payload assembly.

Loading next visibility...
Identifier
12695, 1981-053AP
Orbit
LEO
Last TLE update
11 hours ago
Origin
Manufacturer
Unknown
Mission
Spacecraft
Bus & Motor
Unknown
Mass
Unknown
Launch date (UTC)
1981-06-04 (44 years ago)
Launch vehicle
Unknown
Launch site
Plesetsk Missile And Space Complex (PKMTR)
Object type
Payload
Rocket body
Debris
Shape & HBR
Unknown
Radar Cross Section
Small (<0.1 m²)

Expand to show TLE details & history

TLE from 11 hours ago
0 COSMOS 1275 DEB
1 12695U 81053AP  25181.92825152  .00000666  00000-0  67031-3 0  9999
2 12695  83.0102 159.2030 0103581 294.5475  93.1772 13.73850294180834
Epoch: 2025-06-30T22:16Z
TLE epoch observation values (Epoch: 2025-06-30T22:16:40.931Z)
Latitude
28.71833°
Longitude
-90.36685°
Altitude
994.343 km
Speed
7.355 km/s
True Right ascension
10h 52m 08s
True Declination
28° 34' 42"
Sunlit
Object was in daylight at epoch
Visualization orbit readout
Latitude
22.64415°
Longitude
82.54551°
Altitude
1,043.077 km
Speed
7.305 km/s
Apparent Right ascension
00h 52m 04s
Apparent Declination
-23° 26' 45"
Sunlit
Object is in daylight
Visualization observer readout
Local Sidereal Time
21:02:09
Azimuth
128.786° SE
Elevation
7.065°
Doppler factor
1
Orbital elements
Apogee altitude
1,059.174 km
Perigee altitude
906.681 km
Semi-major axis
7,361.065 km
Eccentricity
0.01036
Inclination
83.0102°
RAAN
159.203°
Arg. of periapsis
294.5475°
True anomaly
Unknown
Mean anomaly
93.1772°
Eccentric anomaly
Unknown
Mean motion
3.43663 °/min
Orbital period
104.75 mins
BSTAR
0.00067031
Loading maneuver chart data...
Loading SW <> Apogee altitude chart data...
Loading historical data...
Loading historical data...
Loading historical data...
Loading historical data...
Loading historical data...
Loading historical data...
Loading historical data...

COSMOS 1275 DEB Visibility forecast

Observer location: undefined°, undefined°

Span
Click to sort rows by Start time (UTC) header in descending order
Start Az.
Max El. time (UTC)
Max El. Az.
Max El.
End time (UTC)
End Az.
12 mins2025-07-01 10:57:53.032Z342.002° N2025-07-01 11:03:53.032Z262.559° W38.709°2025-07-01 11:09:53.032Z194.746° SSW
10 mins2025-07-01 22:43:53.032Z160.501° S2025-07-01 22:47:53.032Z100.494° ESE38.896°2025-07-01 22:53:53.032Z17.431° NNE
8 mins2025-07-02 00:30:53.032Z251.224° W2025-07-02 00:33:53.032Z286.418° WNW21.423°2025-07-02 00:38:53.032Z339.067° N
|